Date String (YYYY-MM-DD hh:mm:ss) UTC,Instrument flags,Ambient pressure (hPa),Sample flow (lpm),Bypass flow (lpm),Sample temperature (°C),Ambient temperature (°C),ASC tube jacket temperature (°C),LED temperature (°C),Box temperature (°C),Sample RH (%),Span deviation,Mass concentration (μg/m³),Mass concentration (μg/m³),Mass concentration (μg/m³)
DateTimeUTC,F1_M11,P_M11,Q1_M11,Q2_M11,T1_M11,T2_M11,T3_M11,T4_M11,T5_M11,U1_M11,ZSPAN_M11,X0_M11,X2_M11,X1_M11
2022-07-04 18:00:00,,0826.1,5.00,0.00,29.1,28.0,00.0,37.8,31.1,27.7,0000.0,0010.48,0003.92,0003.39
2022-07-04 18:01:00,,0826.0,5.00,0.00,29.2,27.8,00.0,37.8,31.1,28.2,0000.0,0009.25,0003.90,0003.39
2022-07-04 18:02:00,,0826.0,5.00,0.00,29.1,27.2,00.0,37.8,31.0,28.3,0000.0,0009.39,0003.89,0003.38
2022-07-04 18:03:00,,0826.0,5.00,0.00,29.1,27.0,00.0,37.7,31.0,28.2,0000.0,0009.84,0003.86,0003.37
2022-07-04 18:04:00,,0826.0,5.00,0.00,29.1,27.1,00.0,37.8,30.9,28.2,0000.0,0009.99,0003.87,0003.37
2022-07-04 18:05:00,,0826.0,5.00,0.00,29.0,27.2,00.0,37.8,30.9,27.9,0000.0,0009.41,0003.92,0003.38
2022-07-04 18:06:00,,0826.0,4.99,0.00,29.0,27.4,00.0,37.8,30.9,28.1,0000.0,0008.93,0003.92,0003.38
2022-07-04 18:07:00,,0826.0,5.00,0.00,29.1,27.6,00.0,37.8,31.0,28.1,0000.0,0009.29,0003.96,0003.38
2022-07-04 18:08:00,,0826.0,5.00,0.00,29.1,27.8,00.0,37.8,31.0,28.1,0000.0,0008.89,0003.99,0003.38
2022-07-04 18:09:00,,0826.0,4.99,0.00,29.1,28.0,00.0,37.8,31.1,27.9,0000.0,0008.81,0003.99,0003.38
2022-07-04 18:10:00,,0826.0,4.99,0.00,29.2,28.0,00.0,37.8,31.2,27.8,0000.0,0009.30,0003.97,0003.39
2022-07-04 18:11:00,,0826.0,5.01,0.00,29.2,27.6,00.0,37.8,31.1,28.1,0000.0,0009.81,0003.98,0003.39
2022-07-04 18:12:00,,0826.0,5.00,0.00,29.1,27.1,00.0,37.8,31.0,28.5,0000.0,0010.18,0004.00,0003.38
2022-07-04 18:13:00,,0826.0,5.01,0.00,29.1,27.1,00.0,37.8,31.0,27.7,0000.0,0010.44,0004.02,0003.37
2022-07-04 18:14:00,,0825.9,5.00,0.00,29.1,27.2,00.0,37.8,30.9,27.6,0000.0,0010.02,0004.03,0003.37
2022-07-04 18:15:00,,0825.9,5.00,0.00,29.1,27.3,00.0,37.8,30.9,28.1,0000.0,0009.76,0004.03,0003.38
2022-07-04 18:16:00,,0825.9,4.99,0.00,29.1,27.5,00.0,37.8,31.0,27.9,0000.0,0009.58,0004.02,0003.37
2022-07-04 18:17:00,,0825.9,5.01,0.00,29.1,27.7,00.0,37.8,31.0,27.7,0000.0,0009.55,0004.02,0003.37
2022-07-04 18:18:00,,0825.9,5.01,0.00,29.1,27.9,00.0,37.8,31.1,27.9,0000.0,0009.12,0003.98,0003.38
2022-07-04 18:19:00,,0825.9,5.00,0.00,29.2,28.0,00.0,37.8,31.2,27.9,0000.0,0008.96,0003.95,0003.38
2022-07-04 18:20:00,,0825.9,5.00,0.00,29.2,27.5,00.0,37.8,31.1,28.3,0000.0,0009.17,0003.95,0003.38
2022-07-04 18:21:00,,0825.9,4.99,0.00,29.1,27.0,00.0,37.8,31.0,27.7,0000.0,0009.48,0003.96,0003.38
2022-07-04 18:22:00,,0825.9,5.01,0.00,29.1,27.0,00.0,37.8,30.9,27.6,0000.0,0009.65,0003.97,0003.38
2022-07-04 18:23:00,,0826.0,5.00,0.00,29.1,27.1,00.0,37.8,30.9,27.5,0000.0,0009.34,0003.97,0003.39
2022-07-04 18:24:00,,0825.9,5.00,0.00,29.0,27.2,00.0,37.8,30.9,27.3,0000.0,0009.00,0003.96,0003.39
2022-07-04 18:25:00,,0825.8,5.00,0.00,29.0,27.4,00.0,37.8,30.9,27.4,0000.0,0008.92,0003.96,0003.40
2022-07-04 18:26:00,,0825.9,4.99,0.00,29.1,27.6,00.0,37.8,31.0,26.9,0000.0,0008.95,0003.92,0003.39
2022-07-04 18:27:00,,0825.8,5.00,0.00,29.1,27.8,00.0,37.8,31.1,26.3,0000.0,0008.99,0003.89,0003.38
2022-07-04 18:28:00,,0825.8,5.00,0.00,29.1,27.7,00.0,37.8,31.1,26.9,0000.0,0009.13,0003.93,0003.38
2022-07-04 18:29:00,,0825.8,5.00,0.00,29.1,27.2,00.0,37.7,31.0,27.3,0000.0,0009.36,0003.98,0003.38
2022-07-04 18:30:00,,0825.9,5.01,0.00,29.1,26.9,00.0,37.7,30.9,27.2,0000.0,0009.55,0003.99,0003.37
2022-07-04 18:31:00,,0825.8,4.99,0.00,29.0,26.9,00.0,37.7,30.8,26.9,0000.0,0009.56,0004.02,0003.38
2022-07-04 18:32:00,,0825.8,5.00,0.00,29.0,27.1,00.0,37.7,30.8,26.6,0000.0,0008.81,0004.05,0003.38
2022-07-04 18:33:00,,0825.8,4.99,0.00,29.0,27.3,00.0,37.7,30.9,26.8,0000.0,0008.22,0004.07,0003.38
2022-07-04 18:34:00,,0826.0,4.99,0.00,29.0,27.5,00.0,37.7,30.9,26.6,0000.0,0008.22,0004.06,0003.36
2022-07-04 18:35:00,,0825.9,5.00,0.00,29.0,27.7,00.0,37.7,31.0,26.9,0000.0,0008.33,0004.08,0003.35
2022-07-04 18:36:00,,0826.0,5.00,0.00,29.1,27.9,00.0,37.8,31.1,27.2,0000.0,0008.43,0004.08,0003.35
2022-07-04 18:37:00,,0825.8,4.99,0.00,29.1,27.8,00.0,37.8,31.1,27.1,0000.0,0008.81,0004.11,0003.35
2022-07-04 18:38:00,,0826.2,5.00,0.00,29.1,27.2,00.0,37.7,31.0,26.8,0000.0,0008.74,0004.11,0003.35
2022-07-04 18:39:00,,0826.1,4.99,0.00,29.0,27.0,00.0,37.7,30.9,27.1,0000.0,0008.89,0004.06,0003.36
2022-07-04 18:40:00,,0825.7,4.99,0.00,29.0,27.0,00.0,37.7,30.8,27.3,0000.0,0009.41,0004.07,0003.36
2022-07-04 18:41:00,,0825.7,5.00,0.00,29.0,27.1,00.0,37.7,30.8,27.3,0000.0,0009.33,0004.08,0003.36
2022-07-04 18:42:00,,0825.9,5.01,0.00,29.0,27.3,00.0,37.7,30.9,27.2,0000.0,0009.13,0004.03,0003.35
2022-07-04 18:43:00,,0826.0,5.01,0.00,29.0,27.5,00.0,37.7,30.9,27.0,0000.0,0009.04,0004.02,0003.35
2022-07-04 18:44:00,,0825.7,5.00,0.00,29.0,27.7,00.0,37.7,31.0,27.0,0000.0,0009.17,0003.99,0003.35
2022-07-04 18:45:00,,0825.7,5.01,0.00,29.1,27.9,00.0,37.8,31.1,27.1,0000.0,0009.29,0004.00,0003.35
2022-07-04 18:46:00,,0825.7,4.99,0.00,29.1,28.0,00.0,37.8,31.1,26.7,0000.0,0009.47,0003.99,0003.36
2022-07-04 18:47:00,,0825.7,4.99,0.00,29.1,27.7,00.0,37.7,31.1,26.8,0000.0,0009.81,0003.99,0003.35
2022-07-04 18:48:00,,0825.6,5.00,0.00,29.1,27.2,00.0,37.7,31.0,26.2,0000.0,0009.45,0003.97,0003.35
2022-07-04 18:49:00,,0825.6,5.00,0.00,29.1,27.1,00.0,37.7,30.9,26.6,0000.0,0009.34,0003.96,0003.35
2022-07-04 18:50:00,,0825.6,5.01,0.00,29.0,27.1,00.0,37.7,30.9,26.8,0000.0,0009.76,0003.96,0003.35
2022-07-04 18:51:00,,0825.6,5.00,0.00,29.0,27.3,00.0,37.7,30.9,26.5,0000.0,0009.02,0003.90,0003.35
2022-07-04 18:52:00,,0825.6,4.99,0.00,29.0,27.5,00.0,37.7,30.9,26.9,0000.0,0008.92,0003.89,0003.35
2022-07-04 18:53:00,,0825.6,4.99,0.00,29.1,27.7,00.0,37.7,31.0,26.6,0000.0,0008.91,0003.89,0003.35
2022-07-04 18:54:00,,0825.6,4.99,0.00,29.1,27.9,00.0,37.8,31.1,26.8,0000.0,0008.84,0003.86,0003.36
2022-07-04 18:55:00,,0825.6,5.00,0.00,29.1,27.8,00.0,37.8,31.1,26.6,0000.0,0009.18,0003.85,0003.36
2022-07-04 18:56:00,,0825.6,5.00,0.00,29.1,27.3,00.0,37.7,31.0,26.9,0000.0,0009.40,0003.90,0003.35
2022-07-04 18:57:00,,0825.6,5.00,0.00,29.1,26.9,00.0,37.7,30.9,26.2,0000.0,0009.78,0003.88,0003.35
2022-07-04 18:58:00,,0825.6,5.00,0.00,29.0,27.0,00.0,37.7,30.9,26.5,0000.0,0009.63,0003.89,0003.35
2022-07-04 18:59:00,,0825.6,5.00,0.00,29.0,27.1,00.0,37.7,30.9,26.0,0000.0,0009.94,0003.91,0003.36
